Tracking 18957 objects as of 22-Jan-2018
HD Live streaming from Space Station
objects crossing your sky now

RADUGA 19

Track RADUGA 19 now!
RADUGA 19 is classified as:


NORAD ID: 17046
Int'l Code: 1986-082A
Perigee: 36,285.0 km
Apogee: 36,333.1 km
Inclination: 15.1 °
Period: 1,462.5 minutes
Semi major axis: 42680 km
RCS: 5.2886 m2 (large)
Launch date: October 25, 1986
Source: Commonwealth of Independent States (former USSR) (CIS)
Launch site: TYURATAM MISSILE AND SPACE COMPLEX (TTMTR)
aabbcc
Your satellite tracking list
Your tracking list is empty




NASA's NSSDC Master Catalog

Two Line Element Set (TLE):
1 17046U 86082A   18021.28035334 -.00000186  00000-0  00000+0 0  9997
2 17046  15.0667 350.5973 0005624 107.0510  83.0303  0.98461300112730
Source of the keplerian elements: AFSPC